Time,TemperatureF,DewpointF,PressureIn,WindDirection,WindDirectionDegrees,WindSpeedMPH,WindSpeedGustMPH,Humidity,HourlyPrecipIn,Conditions,Clouds,dailyrainin,SoftwareType,DateUTC
2013-02-18 00:05:00,33.3,14.2,29.93,WNW,283,5.0,5.0,45,0.00,,,0.00,Wunderground v.1.15,2013-02-18 07:05:00,
2013-02-18 00:15:00,32.9,14.4,29.94,West,271,5.0,5.0,46,0.00,,,0.00,Wunderground v.1.15,2013-02-18 07:15:00,
2013-02-18 00:20:00,32.6,16.0,29.94,WNW,284,3.0,3.0,50,0.00,,,0.00,Wunderground v.1.15,2013-02-18 07:20:00,
2013-02-18 00:25:00,32.0,14.5,29.94,WNW,284,2.0,4.0,48,0.00,,,0.00,Wunderground v.1.15,2013-02-18 07:25:00,
2013-02-18 00:30:00,31.8,15.3,29.94,WNW,288,3.0,3.0,50,0.00,,,0.00,Wunderground v.1.15,2013-02-18 07:30:00,
2013-02-18 00:40:00,31.3,16.1,29.96,West,280,3.0,5.0,53,0.00,,,0.00,Wunderground v.1.15,2013-02-18 07:40:00,
2013-02-18 00:45:00,30.7,16.4,29.97,WNW,283,4.0,5.0,55,0.00,,,0.00,Wunderground v.1.15,2013-02-18 07:45:00,
2013-02-18 00:50:00,30.4,16.6,29.97,WNW,282,4.0,4.0,56,0.00,,,0.00,Wunderground v.1.15,2013-02-18 07:50:00,
2013-02-18 00:55:00,30.4,17.0,29.97,WNW,288,4.0,4.0,57,0.00,,,0.00,Wunderground v.1.15,2013-02-18 07:55:00,
2013-02-18 01:00:00,30.2,16.8,29.97,WNW,287,2.0,2.0,57,0.00,,,0.00,Wunderground v.1.15,2013-02-18 08:00:00,
2013-02-18 01:05:00,29.8,16.8,29.95,WNW,287,2.0,2.0,58,0.00,,,0.00,Wunderground v.1.15,2013-02-18 08:05:00,
2013-02-18 01:15:00,29.3,17.1,29.96,WNW,287,3.0,3.0,60,0.00,,,0.00,Wunderground v.1.15,2013-02-18 08:15:00,
2013-02-18 01:20:00,29.2,17.0,29.97,WNW,287,2.0,4.0,60,0.00,,,0.00,Wunderground v.1.15,2013-02-18 08:20:00,
2013-02-18 01:25:00,29.2,17.4,29.97,WNW,287,2.0,4.0,61,0.00,,,0.00,Wunderground v.1.15,2013-02-18 08:25:00,
2013-02-18 01:30:00,29.1,17.3,29.97,WNW,287,2.0,2.0,61,0.00,,,0.00,Wunderground v.1.15,2013-02-18 08:30:00,
2013-02-18 01:40:00,28.8,17.0,29.98,WNW,287,2.0,2.0,61,0.00,,,0.00,Wunderground v.1.15,2013-02-18 08:40:00,
2013-02-18 01:45:00,28.8,17.0,29.98,WNW,287,1.0,2.0,61,0.00,,,0.00,Wunderground v.1.15,2013-02-18 08:45:00,
2013-02-18 01:50:00,28.7,16.9,29.98,WNW,287,1.0,1.0,61,0.00,,,0.00,Wunderground v.1.15,2013-02-18 08:50:00,
2013-02-18 02:00:00,28.1,17.1,29.99,WNW,286,3.0,3.0,63,0.00,,,0.00,Wunderground v.1.15,2013-02-18 09:00:00,
2013-02-18 02:05:00,27.9,17.3,29.99,WNW,286,2.0,3.0,64,0.00,,,0.00,Wunderground v.1.15,2013-02-18 09:05:00,
2013-02-18 02:14:00,27.2,17.0,29.99,WNW,287,0.0,1.0,65,0.00,,,0.00,Wunderground v.1.15,2013-02-18 09:14:00,
2013-02-18 02:19:00,26.7,16.9,29.99,WNW,287,0.0,2.0,66,0.00,,,0.00,Wunderground v.1.15,2013-02-18 09:19:00,
2013-02-18 02:25:00,26.4,16.9,30.01,WNW,287,2.0,2.0,67,0.00,,,0.00,Wunderground v.1.15,2013-02-18 09:25:00,
2013-02-18 02:30:00,26.2,16.7,30.01,WNW,287,2.0,3.0,67,0.00,,,0.00,Wunderground v.1.15,2013-02-18 09:30:00,
2013-02-18 02:35:00,26.2,16.7,30.02,WNW,287,2.0,3.0,67,0.00,,,0.00,Wunderground v.1.15,2013-02-18 09:35:00,
2013-02-18 02:45:00,25.9,16.4,30.02,WNW,287,0.0,1.0,67,0.00,,,0.00,Wunderground v.1.15,2013-02-18 09:45:00,
2013-02-18 02:55:00,25.6,16.2,30.03,WNW,287,2.0,3.0,67,0.00,,,0.00,Wunderground v.1.15,2013-02-18 09:55:00,
2013-02-18 03:05:00,25.9,15.4,30.03,West,279,4.0,5.0,64,0.00,,,0.00,Wunderground v.1.15,2013-02-18 10:05:00,
2013-02-18 03:15:00,26.9,15.6,30.03,WNW,286,5.0,5.0,62,0.00,,,0.00,Wunderground v.1.15,2013-02-18 10:15:00,
2013-02-18 03:20:00,27.0,15.7,30.03,West,275,5.0,5.0,62,0.00,,,0.00,Wunderground v.1.15,2013-02-18 10:20:00,
2013-02-18 03:25:00,27.0,15.7,30.03,West,276,5.0,5.0,62,0.00,,,0.00,Wunderground v.1.15,2013-02-18 10:25:00,
2013-02-18 03:30:00,27.1,15.4,30.04,West,279,5.0,5.0,61,0.00,,,0.00,Wunderground v.1.15,2013-02-18 10:30:00,
2013-02-18 03:35:00,27.2,15.1,30.05,West,280,4.0,5.0,60,0.00,,,0.00,Wunderground v.1.15,2013-02-18 10:35:00,
2013-02-18 03:40:00,27.3,14.8,30.05,West,280,4.0,4.0,59,0.00,,,0.00,Wunderground v.1.15,2013-02-18 10:40:00,
2013-02-18 03:45:00,27.2,14.8,30.05,West,280,4.0,4.0,59,0.00,,,0.00,Wunderground v.1.15,2013-02-18 10:45:00,
2013-02-18 03:50:00,27.2,14.8,30.05,West,281,3.0,3.0,59,0.00,,,0.00,Wunderground v.1.15,2013-02-18 10:50:00,
2013-02-18 03:55:00,27.1,14.7,30.05,WNW,284,3.0,3.0,59,0.00,,,0.00,Wunderground v.1.15,2013-02-18 10:55:00,
2013-02-18 04:05:00,26.6,14.2,30.05,West,267,4.0,4.0,59,0.00,,,0.00,Wunderground v.1.15,2013-02-18 11:05:00,
2013-02-18 04:15:00,26.7,14.3,30.06,West,275,3.0,3.0,59,0.00,,,0.00,Wunderground v.1.15,2013-02-18 11:15:00,
2013-02-18 04:20:00,26.6,14.2,30.06,West,274,3.0,3.0,59,0.00,,,0.00,Wunderground v.1.15,2013-02-18 11:20:00,
2013-02-18 04:25:00,26.6,14.2,30.06,West,275,3.0,3.0,59,0.00,,,0.00,Wunderground v.1.15,2013-02-18 11:25:00,
2013-02-18 04:30:00,26.6,14.2,30.06,West,277,3.0,3.0,59,0.00,,,0.00,Wunderground v.1.15,2013-02-18 11:30:00,
2013-02-18 04:35:00,26.7,13.9,30.06,West,279,4.0,4.0,58,0.00,,,0.00,Wunderground v.1.15,2013-02-18 11:35:00,
2013-02-18 04:40:00,26.8,14.0,30.06,West,280,4.0,4.0,58,0.00,,,0.00,Wunderground v.1.15,2013-02-18 11:40:00,
2013-02-18 04:50:00,26.9,13.3,30.07,West,280,3.0,4.0,56,0.00,,,0.00,Wunderground v.1.15,2013-02-18 11:50:00,
2013-02-18 04:55:00,27.0,13.0,30.07,WNW,289,4.0,4.0,55,0.00,,,0.00,Wunderground v.1.15,2013-02-18 11:55:00,
2013-02-18 05:00:00,27.5,12.6,30.08,WNW,292,4.0,5.0,53,0.00,,,0.00,Wunderground v.1.15,2013-02-18 12:00:00,
2013-02-18 05:05:00,27.9,13.0,30.11,WNW,292,4.0,5.0,53,0.00,,,0.00,Wunderground v.1.15,2013-02-18 12:05:00,
2013-02-18 05:15:00,27.5,13.0,30.11,WNW,298,2.0,4.0,54,0.00,,,0.00,Wunderground v.1.15,2013-02-18 12:15:00,
2013-02-18 05:25:00,27.0,12.5,30.12,NW,304,2.0,3.0,54,0.00,,,0.00,Wunderground v.1.15,2013-02-18 12:25:00,
2013-02-18 05:29:00,26.8,12.4,30.12,NW,304,2.0,3.0,54,0.00,,,0.00,Wunderground v.1.15,2013-02-18 12:29:00,
2013-02-18 05:34:00,26.8,11.9,30.12,WNW,303,3.0,4.0,53,0.00,,,0.00,Wunderground v.1.15,2013-02-18 12:34:00,
2013-02-18 05:40:00,26.9,12.5,30.12,NW,306,3.0,3.0,54,0.00,,,0.00,Wunderground v.1.15,2013-02-18 12:40:00,
2013-02-18 05:45:00,26.5,12.5,30.12,NW,306,1.0,3.0,55,0.00,,,0.00,Wunderground v.1.15,2013-02-18 12:45:00,
2013-02-18 05:55:00,25.7,12.6,30.13,NW,305,2.0,3.0,57,0.00,,,0.00,Wunderground v.1.15,2013-02-18 12:55:00,
2013-02-18 06:00:00,25.0,12.7,30.14,NW,305,2.0,2.0,59,0.00,,,0.00,Wunderground v.1.15,2013-02-18 13:00:00,
2013-02-18 06:05:00,24.4,12.9,30.15,NW,305,1.0,2.0,61,0.00,,,0.00,Wunderground v.1.15,2013-02-18 13:05:00,
2013-02-18 06:15:00,24.1,12.9,30.16,NW,304,2.0,2.0,62,0.00,,,0.00,Wunderground v.1.15,2013-02-18 13:15:00,
2013-02-18 06:25:00,24.2,13.4,30.16,NW,306,1.0,2.0,63,0.00,,,0.00,Wunderground v.1.15,2013-02-18 13:25:00,
2013-02-18 06:30:00,23.9,13.1,30.16,NNW,334,2.0,2.0,63,0.00,,,0.00,Wunderground v.1.15,2013-02-18 13:30:00,
2013-02-18 06:40:00,23.7,12.9,30.16,NNW,335,1.0,1.0,63,0.00,,,0.00,Wunderground v.1.15,2013-02-18 13:40:00,
2013-02-18 06:44:00,23.5,12.4,30.16,NNW,334,0.0,1.0,62,0.00,,,0.00,Wunderground v.1.15,2013-02-18 13:44:00,
2013-02-18 06:50:00,23.5,12.4,30.17,NNW,335,0.0,0.0,62,0.00,,,0.00,Wunderground v.1.15,2013-02-18 13:50:00,
2013-02-18 06:55:00,23.6,12.5,30.17,NNW,334,1.0,1.0,62,0.00,,,0.00,Wunderground v.1.15,2013-02-18 13:55:00,
2013-02-18 07:00:00,23.9,12.8,30.17,NNW,335,1.0,2.0,62,0.00,,,0.00,Wunderground v.1.15,2013-02-18 14:00:00,
2013-02-18 07:05:00,24.0,12.9,30.20,NNW,334,1.0,2.0,62,0.00,,,0.00,Wunderground v.1.15,2013-02-18 14:05:00,
2013-02-18 07:15:00,23.3,12.6,30.20,NNW,335,1.0,3.0,63,0.00,,,0.00,Wunderground v.1.15,2013-02-18 14:15:00,
2013-02-18 07:20:00,23.0,12.6,30.21,NNW,335,1.0,1.0,64,0.00,,,0.00,Wunderground v.1.15,2013-02-18 14:20:00,
2013-02-18 07:30:00,23.0,13.3,30.21,NNW,335,1.0,3.0,66,0.00,,,0.00,Wunderground v.1.15,2013-02-18 14:30:00,
2013-02-18 07:35:00,23.0,13.3,30.22,NNW,335,1.0,3.0,66,0.00,,,0.00,Wunderground v.1.15,2013-02-18 14:35:00,
2013-02-18 07:40:00,23.1,13.8,30.22,NNW,334,1.0,1.0,67,0.00,,,0.00,Wunderground v.1.15,2013-02-18 14:40:00,
2013-02-18 07:45:00,23.2,14.2,30.22,NNW,334,0.0,2.0,68,0.00,,,0.00,Wunderground v.1.15,2013-02-18 14:45:00,
2013-02-18 07:50:00,23.4,14.4,30.22,NNW,333,1.0,4.0,68,0.00,,,0.00,Wunderground v.1.15,2013-02-18 14:50:00,
2013-02-18 07:55:00,23.8,15.1,30.23,NNW,338,2.0,4.0,69,0.00,,,0.00,Wunderground v.1.15,2013-02-18 14:55:00,
2013-02-18 08:00:00,24.3,15.6,30.23,NNW,337,2.0,2.0,69,0.00,,,0.00,Wunderground v.1.15,2013-02-18 15:00:00,
2013-02-18 08:05:00,25.2,16.1,30.22,NW,323,2.0,2.0,68,0.00,,,0.00,Wunderground v.1.15,2013-02-18 15:05:00,
2013-02-18 08:15:00,26.9,16.3,30.21,NNW,334,2.0,3.0,64,0.00,,,0.00,Wunderground v.1.15,2013-02-18 15:15:00,
2013-02-18 08:20:00,27.7,16.7,30.21,NNW,332,2.0,3.0,63,0.00,,,0.00,Wunderground v.1.15,2013-02-18 15:20:00,
2013-02-18 08:30:00,28.9,15.6,30.20,NNW,331,2.0,2.0,57,0.00,,,0.00,Wunderground v.1.15,2013-02-18 15:30:00,
2013-02-18 08:40:00,30.1,15.4,30.21,NNW,331,1.0,1.0,54,0.00,,,0.00,Wunderground v.1.15,2013-02-18 15:40:00,
2013-02-18 08:45:00,30.5,15.4,30.21,NNW,330,2.0,2.0,53,0.00,,,0.00,Wunderground v.1.15,2013-02-18 15:45:00,
2013-02-18 08:50:00,30.7,15.1,30.20,WSW,245,2.0,4.0,52,0.00,,,0.00,Wunderground v.1.15,2013-02-18 15:50:00,
2013-02-18 08:55:00,30.6,15.0,30.20,WSW,238,2.0,4.0,52,0.00,,,0.00,Wunderground v.1.15,2013-02-18 15:55:00,
2013-02-18 09:05:00,31.4,15.3,30.21,WSW,253,1.0,3.0,51,0.00,,,0.00,Wunderground v.1.15,2013-02-18 16:05:00,
2013-02-18 09:15:00,32.4,15.3,30.20,West,261,1.0,1.0,49,0.00,,,0.00,Wunderground v.1.15,2013-02-18 16:15:00,
2013-02-18 09:20:00,33.1,15.5,30.20,West,273,1.0,1.0,48,0.00,,,0.00,Wunderground v.1.15,2013-02-18 16:20:00,
2013-02-18 09:25:00,33.4,14.3,30.20,North,355,1.0,1.0,45,0.00,,,0.00,Wunderground v.1.15,2013-02-18 16:25:00,
2013-02-18 09:30:00,34.0,14.3,30.19,NNW,345,1.0,1.0,44,0.00,,,0.00,Wunderground v.1.15,2013-02-18 16:30:00,
2013-02-18 09:35:00,34.4,14.2,30.19,WNW,300,2.0,3.0,43,0.00,,,0.00,Wunderground v.1.15,2013-02-18 16:35:00,
2013-02-18 09:40:00,34.9,14.6,30.19,NW,319,1.0,2.0,43,0.00,,,0.00,Wunderground v.1.15,2013-02-18 16:40:00,
2013-02-18 09:45:00,35.4,14.6,30.19,NW,311,1.0,2.0,42,0.00,,,0.00,Wunderground v.1.15,2013-02-18 16:45:00,
2013-02-18 09:55:00,36.1,15.2,30.18,WNW,294,1.0,1.0,42,0.00,,,0.00,Wunderground v.1.15,2013-02-18 16:55:00,
2013-02-18 10:00:00,36.3,14.8,30.18,WNW,286,2.0,4.0,41,0.00,,,0.00,Wunderground v.1.15,2013-02-18 17:00:00,
2013-02-18 10:05:00,36.6,14.5,30.19,West,269,2.0,4.0,40,0.00,,,0.00,Wunderground v.1.15,2013-02-18 17:05:00,
2013-02-18 10:15:00,37.0,13.7,30.19,NW,313,2.0,2.0,38,0.00,,,0.00,Wunderground v.1.15,2013-02-18 17:15:00,
2013-02-18 10:25:00,38.1,13.5,30.19,NNW,338,0.0,1.0,36,0.00,,,0.00,Wunderground v.1.15,2013-02-18 17:25:00,
2013-02-18 10:30:00,37.9,13.3,30.19,SE,140,1.0,2.0,36,0.00,,,0.00,Wunderground v.1.15,2013-02-18 17:30:00,
2013-02-18 10:40:00,38.5,13.8,30.18,NE,52,2.0,4.0,36,0.00,,,0.00,Wunderground v.1.15,2013-02-18 17:40:00,
2013-02-18 10:45:00,38.4,13.7,30.19,NE,55,2.0,4.0,36,0.00,,,0.00,Wunderground v.1.15,2013-02-18 17:45:00,
2013-02-18 10:50:00,38.3,13.6,30.19,ENE,63,1.0,1.0,36,0.00,,,0.00,Wunderground v.1.15,2013-02-18 17:50:00,
2013-02-18 10:55:00,38.7,14.0,30.18,ENE,60,1.0,1.0,36,0.00,,,0.00,Wunderground v.1.15,2013-02-18 17:55:00,
2013-02-18 11:00:00,39.2,15.1,30.18,NE,55,0.0,1.0,37,0.00,,,0.00,Wunderground v.1.15,2013-02-18 18:00:00,
2013-02-18 11:05:00,38.9,14.2,30.19,ENE,59,1.0,1.0,36,0.00,,,0.00,Wunderground v.1.15,2013-02-18 18:05:00,
2013-02-18 11:15:00,38.5,14.4,30.18,NE,37,2.0,2.0,37,0.00,,,0.00,Wunderground v.1.15,2013-02-18 18:15:00,
2013-02-18 11:20:00,39.5,14.7,30.18,East,79,1.0,4.0,36,0.00,,,0.00,Wunderground v.1.15,2013-02-18 18:20:00,
2013-02-18 11:25:00,39.8,14.3,30.18,ENE,72,1.0,4.0,35,0.00,,,0.00,Wunderground v.1.15,2013-02-18 18:25:00,
2013-02-18 11:30:00,39.9,14.4,30.18,NE,41,3.0,3.0,35,0.00,,,0.00,Wunderground v.1.15,2013-02-18 18:30:00,
2013-02-18 11:35:00,39.1,13.7,30.18,NE,48,4.0,4.0,35,0.00,,,0.00,Wunderground v.1.15,2013-02-18 18:35:00,
2013-02-18 11:45:00,40.5,15.0,30.17,NW,311,1.0,5.0,35,0.00,,,0.00,Wunderground v.1.15,2013-02-18 18:45:00,
2013-02-18 11:50:00,40.8,14.6,30.17,NE,47,2.0,2.0,34,0.00,,,0.00,Wunderground v.1.15,2013-02-18 18:50:00,
2013-02-18 11:55:00,40.5,14.3,30.17,NNE,25,3.0,3.0,34,0.00,,,0.00,Wunderground v.1.15,2013-02-18 18:55:00,
2013-02-18 12:05:00,40.2,14.0,30.18,NE,56,3.0,6.0,34,0.00,,,0.00,Wunderground v.1.15,2013-02-18 19:05:00,
2013-02-18 12:15:00,41.1,14.8,30.18,NNE,31,3.0,3.0,34,0.00,,,0.00,Wunderground v.1.15,2013-02-18 19:15:00,
2013-02-18 12:20:00,40.8,14.6,30.18,NNE,32,3.0,3.0,34,0.00,,,0.00,Wunderground v.1.15,2013-02-18 19:20:00,
2013-02-18 12:25:00,40.6,14.4,30.17,North,9,2.0,3.0,34,0.00,,,0.00,Wunderground v.1.15,2013-02-18 19:25:00,
2013-02-18 12:30:00,41.3,15.0,30.18,NNE,17,3.0,3.0,34,0.00,,,0.00,Wunderground v.1.15,2013-02-18 19:30:00,
2013-02-18 12:35:00,41.4,15.1,30.17,NE,45,2.0,3.0,34,0.00,,,0.00,Wunderground v.1.15,2013-02-18 19:35:00,
2013-02-18 12:40:00,41.9,15.5,30.16,West,277,1.0,1.0,34,0.00,,,0.00,Wunderground v.1.15,2013-02-18 19:40:00,
2013-02-18 12:45:00,42.4,16.0,30.15,East,92,1.0,1.0,34,0.00,,,0.00,Wunderground v.1.15,2013-02-18 19:45:00,
2013-02-18 12:50:00,42.7,15.6,30.16,NNW,333,1.0,1.0,33,0.00,,,0.00,Wunderground v.1.15,2013-02-18 19:50:00,
2013-02-18 13:00:00,42.2,15.8,30.15,WNW,286,5.0,7.0,34,0.00,,,0.00,Wunderground v.1.15,2013-02-18 20:00:00,
2013-02-18 13:05:00,41.9,14.8,30.16,WSW,252,5.0,7.0,33,0.00,,,0.00,Wunderground v.1.15,2013-02-18 20:05:00,
2013-02-18 13:15:00,41.9,15.5,30.16,NW,321,1.0,4.0,34,0.00,,,0.00,Wunderground v.1.15,2013-02-18 20:15:00,
2013-02-18 13:20:00,42.9,15.7,30.15,WSW,254,1.0,3.0,33,0.00,,,0.00,Wunderground v.1.15,2013-02-18 20:20:00,
2013-02-18 13:25:00,43.2,16.7,30.15,WSW,242,3.0,3.0,34,0.00,,,0.00,Wunderground v.1.15,2013-02-18 20:25:00,
2013-02-18 13:30:00,43.6,16.3,30.14,West,264,4.0,7.0,33,0.00,,,0.00,Wunderground v.1.15,2013-02-18 20:30:00,
2013-02-18 13:35:00,43.6,16.3,30.14,NNW,340,4.0,7.0,33,0.00,,,0.00,Wunderground v.1.15,2013-02-18 20:35:00,
2013-02-18 13:45:00,43.6,16.3,30.14,NW,304,4.0,4.0,33,0.00,,,0.00,Wunderground v.1.15,2013-02-18 20:45:00,
2013-02-18 13:50:00,44.0,16.7,30.14,WNW,283,3.0,3.0,33,0.00,,,0.00,Wunderground v.1.15,2013-02-18 20:50:00,
2013-02-18 13:55:00,44.2,16.9,30.14,WNW,301,3.0,3.0,33,0.00,,,0.00,Wunderground v.1.15,2013-02-18 20:55:00,
2013-02-18 14:00:00,44.5,16.4,30.14,NNW,339,2.0,2.0,32,0.00,,,0.00,Wunderground v.1.15,2013-02-18 21:00:00,
2013-02-18 14:05:00,44.5,16.4,30.15,NW,309,4.0,7.0,32,0.00,,,0.00,Wunderground v.1.15,2013-02-18 21:05:00,
2013-02-18 14:15:00,43.5,16.3,30.15,NW,313,4.0,5.0,33,0.00,,,0.00,Wunderground v.1.15,2013-02-18 21:15:00,
2013-02-18 14:25:00,43.0,16.5,30.15,West,277,6.0,11.0,34,0.00,,,0.00,Wunderground v.1.15,2013-02-18 21:25:00,
2013-02-18 14:35:00,43.2,15.3,30.15,West,280,6.0,7.0,32,0.00,,,0.00,Wunderground v.1.15,2013-02-18 21:35:00,
2013-02-18 14:40:00,42.9,14.3,30.16,West,279,7.0,9.0,31,0.00,,,0.00,Wunderground v.1.15,2013-02-18 21:40:00,
2013-02-18 14:50:00,42.8,14.2,30.15,West,274,9.0,9.0,31,0.00,,,0.00,Wunderground v.1.15,2013-02-18 21:50:00,
2013-02-18 14:55:00,42.3,13.0,30.16,West,279,9.0,9.0,30,0.00,,,0.00,Wunderground v.1.15,2013-02-18 21:55:00,
2013-02-18 15:00:00,42.3,13.0,30.16,WNW,294,7.0,11.0,30,0.00,,,0.00,Wunderground v.1.15,2013-02-18 22:00:00,
2013-02-18 15:05:00,42.5,12.4,30.14,WNW,291,6.0,11.0,29,0.00,,,0.00,Wunderground v.1.15,2013-02-18 22:05:00,
2013-02-18 15:15:00,43.0,13.6,30.15,West,271,6.0,6.0,30,0.00,,,0.00,Wunderground v.1.15,2013-02-18 22:15:00,
2013-02-18 15:20:00,42.5,13.2,30.15,WSW,252,8.0,9.0,30,0.00,,,0.00,Wunderground v.1.15,2013-02-18 22:20:00,
2013-02-18 15:30:00,41.5,13.1,30.16,WNW,296,8.0,8.0,31,0.00,,,0.00,Wunderground v.1.15,2013-02-18 22:30:00,
2013-02-18 15:35:00,41.6,12.4,30.16,WNW,286,8.0,8.0,30,0.00,,,0.00,Wunderground v.1.15,2013-02-18 22:35:00,
2013-02-18 15:40:00,41.5,13.1,30.16,NW,309,7.0,7.0,31,0.00,,,0.00,Wunderground v.1.15,2013-02-18 22:40:00,
2013-02-18 15:45:00,41.1,13.4,30.16,WNW,292,7.0,7.0,32,0.00,,,0.00,Wunderground v.1.15,2013-02-18 22:45:00,
2013-02-18 15:50:00,40.6,13.0,30.16,WNW,286,6.0,6.0,32,0.00,,,0.00,Wunderground v.1.15,2013-02-18 22:50:00,
2013-02-18 16:00:00,39.9,13.1,30.17,WNW,284,6.0,6.0,33,0.00,,,0.00,Wunderground v.1.15,2013-02-18 23:00:00,
2013-02-18 16:05:00,39.7,12.9,30.16,WNW,283,6.0,6.0,33,0.00,,,0.00,Wunderground v.1.15,2013-02-18 23:05:00,
2013-02-18 16:15:00,39.8,13.7,30.16,WNW,303,5.0,6.0,34,0.00,,,0.00,Wunderground v.1.15,2013-02-18 23:15:00,
2013-02-18 16:20:00,39.8,13.0,30.16,West,280,5.0,6.0,33,0.00,,,0.00,Wunderground v.1.15,2013-02-18 23:20:00,
2013-02-18 16:30:00,39.4,11.9,30.17,West,272,7.0,8.0,32,0.00,,,0.00,Wunderground v.1.15,2013-02-18 23:30:00,
2013-02-18 16:35:00,39.3,11.1,30.17,West,280,6.0,8.0,31,0.00,,,0.00,Wunderground v.1.15,2013-02-18 23:35:00,
2013-02-18 16:40:00,39.5,11.3,30.16,West,268,5.0,9.0,31,0.00,,,0.00,Wunderground v.1.15,2013-02-18 23:40:00,
2013-02-18 16:45:00,39.4,10.5,30.17,WNW,288,5.0,9.0,30,0.00,,,0.00,Wunderground v.1.15,2013-02-18 23:45:00,
2013-02-18 16:50:00,39.4,11.9,30.17,West,275,4.0,5.0,32,0.00,,,0.00,Wunderground v.1.15,2013-02-18 23:50:00,
2013-02-18 16:55:00,39.3,11.9,30.17,WNW,282,3.0,5.0,32,0.00,,,0.00,Wunderground v.1.15,2013-02-18 23:55:00,
2013-02-18 17:05:00,39.4,13.3,30.17,NW,322,2.0,4.0,34,0.00,,,0.00,Wunderground v.1.15,2013-02-19 00:05:00,
2013-02-18 17:15:00,39.5,14.7,30.18,NNW,331,3.0,3.0,36,0.00,,,0.00,Wunderground v.1.15,2013-02-19 00:15:00,
2013-02-18 17:20:00,39.2,15.1,30.17,NW,323,3.0,3.0,37,0.00,,,0.00,Wunderground v.1.15,2013-02-19 00:20:00,
2013-02-18 17:30:00,38.2,16.0,30.18,NNW,346,2.0,2.0,40,0.00,,,0.00,Wunderground v.1.15,2013-02-19 00:30:00,
2013-02-18 17:40:00,37.2,15.1,30.18,North,355,0.0,2.0,40,0.00,,,0.00,Wunderground v.1.15,2013-02-19 00:40:00,
2013-02-18 17:50:00,36.6,14.5,30.19,North,355,0.0,0.0,40,0.00,,,0.00,Wunderground v.1.15,2013-02-19 00:50:00,
2013-02-18 17:55:00,36.3,15.4,30.20,North,355,0.0,0.0,42,0.00,,,0.00,Wunderground v.1.15,2013-02-19 00:55:00,
2013-02-18 18:05:00,35.5,15.2,30.20,North,355,0.0,0.0,43,0.00,,,0.00,Wunderground v.1.15,2013-02-19 01:05:00,
2013-02-18 18:15:00,34.8,15.1,30.22,North,355,0.0,0.0,44,0.00,,,0.00,Wunderground v.1.15,2013-02-19 01:15:00,
2013-02-18 18:25:00,34.3,14.6,30.22,North,355,0.0,0.0,44,0.00,,,0.00,Wunderground v.1.15,2013-02-19 01:25:00,
2013-02-18 18:30:00,34.2,15.0,30.22,North,355,0.0,0.0,45,0.00,,,0.00,Wunderground v.1.15,2013-02-19 01:30:00,
2013-02-18 18:40:00,33.4,15.3,30.23,North,355,0.0,0.0,47,0.00,,,0.00,Wunderground v.1.15,2013-02-19 01:40:00,
2013-02-18 18:45:00,32.8,15.2,30.23,North,355,0.0,0.0,48,0.00,,,0.00,Wunderground v.1.15,2013-02-19 01:45:00,
2013-02-18 18:55:00,32.4,14.9,30.22,North,355,0.0,0.0,48,0.00,,,0.00,Wunderground v.1.15,2013-02-19 01:55:00,
2013-02-18 19:00:00,32.5,15.0,30.22,North,355,0.0,0.0,48,0.00,,,0.00,Wunderground v.1.15,2013-02-19 02:00:00,
2013-02-18 19:05:00,32.4,15.3,30.22,North,355,0.0,0.0,49,0.00,,,0.00,Wunderground v.1.15,2013-02-19 02:05:00,
2013-02-18 19:15:00,32.2,15.2,30.22,North,355,0.0,0.0,49,0.00,,,0.00,Wunderground v.1.15,2013-02-19 02:15:00,
2013-02-18 19:20:00,32.0,15.0,30.22,North,355,0.0,0.0,49,0.00,,,0.00,Wunderground v.1.15,2013-02-19 02:20:00,
2013-02-18 19:25:00,31.9,15.3,30.22,North,355,0.0,0.0,50,0.00,,,0.00,Wunderground v.1.15,2013-02-19 02:25:00,
2013-02-18 19:30:00,31.6,15.5,30.22,North,355,0.0,0.0,51,0.00,,,0.00,Wunderground v.1.15,2013-02-19 02:30:00,
2013-02-18 19:35:00,31.2,15.6,30.22,North,355,0.0,0.0,52,0.00,,,0.00,Wunderground v.1.15,2013-02-19 02:35:00,
2013-02-18 19:45:00,30.5,15.8,30.22,North,355,0.0,1.0,54,0.00,,,0.00,Wunderground v.1.15,2013-02-19 02:45:00,
2013-02-18 19:50:00,29.8,16.0,30.23,North,355,1.0,3.0,56,0.00,,,0.00,Wunderground v.1.15,2013-02-19 02:50:00,
2013-02-18 19:55:00,29.4,15.6,30.23,North,355,2.0,3.0,56,0.00,,,0.00,Wunderground v.1.15,2013-02-19 02:55:00,
2013-02-18 20:00:00,29.3,15.9,30.22,North,355,2.0,2.0,57,0.00,,,0.00,Wunderground v.1.15,2013-02-19 03:00:00,
2013-02-18 20:10:00,29.2,16.2,30.19,North,355,2.0,2.0,58,0.00,,,0.00,Wunderground v.1.15,2013-02-19 03:10:00,
2013-02-18 20:20:00,29.1,16.5,30.19,North,355,0.0,0.0,59,0.00,,,0.00,Wunderground v.1.15,2013-02-19 03:20:00,
2013-02-18 20:30:00,28.7,17.3,30.18,North,355,0.0,0.0,62,0.00,,,0.00,Wunderground v.1.15,2013-02-19 03:30:00,
2013-02-18 20:35:00,28.4,17.4,30.19,North,355,0.0,0.0,63,0.00,,,0.00,Wunderground v.1.15,2013-02-19 03:35:00,
2013-02-18 20:40:00,28.1,17.5,30.19,North,355,0.0,0.0,64,0.00,,,0.00,Wunderground v.1.15,2013-02-19 03:40:00,
2013-02-18 20:50:00,27.3,17.1,30.19,North,355,0.0,0.0,65,0.00,,,0.00,Wunderground v.1.15,2013-02-19 03:50:00,
2013-02-18 20:55:00,27.0,17.5,30.19,North,355,0.0,2.0,67,0.00,,,0.00,Wunderground v.1.15,2013-02-19 03:55:00,
2013-02-18 21:00:00,27.1,17.6,30.19,North,355,0.0,0.0,67,0.00,,,0.00,Wunderground v.1.15,2013-02-19 04:00:00,
2013-02-18 21:05:00,27.1,17.6,30.16,North,355,0.0,1.0,67,0.00,,,0.00,Wunderground v.1.15,2013-02-19 04:05:00,
2013-02-18 21:15:00,27.1,17.6,30.16,North,355,0.0,0.0,67,0.00,,,0.00,Wunderground v.1.15,2013-02-19 04:15:00,
2013-02-18 21:25:00,26.8,18.0,30.15,North,355,0.0,0.0,69,0.00,,,0.00,Wunderground v.1.15,2013-02-19 04:25:00,
2013-02-18 21:30:00,26.9,18.1,30.16,North,355,0.0,0.0,69,0.00,,,0.00,Wunderground v.1.15,2013-02-19 04:30:00,
2013-02-18 21:35:00,26.3,16.8,30.16,North,355,0.0,0.0,67,0.00,,,0.00,Wunderground v.1.15,2013-02-19 04:35:00,
2013-02-18 21:40:00,25.2,16.8,30.17,North,355,1.0,1.0,70,0.00,,,0.00,Wunderground v.1.15,2013-02-19 04:40:00,
2013-02-18 21:45:00,25.0,17.2,30.17,North,355,1.0,1.0,72,0.00,,,0.00,Wunderground v.1.15,2013-02-19 04:45:00,
2013-02-18 21:50:00,25.1,17.3,30.17,North,355,0.0,0.0,72,0.00,,,0.00,Wunderground v.1.15,2013-02-19 04:50:00,
2013-02-18 21:55:00,25.3,17.9,30.17,North,355,1.0,2.0,73,0.00,,,0.00,Wunderground v.1.15,2013-02-19 04:55:00,
2013-02-18 22:00:00,25.3,17.5,30.17,North,355,1.0,1.0,72,0.00,,,0.00,Wunderground v.1.15,2013-02-19 05:00:00,
2013-02-18 22:05:00,25.0,17.2,30.16,North,355,0.0,1.0,72,0.00,,,0.00,Wunderground v.1.15,2013-02-19 05:05:00,
2013-02-18 22:15:00,24.9,17.8,30.16,North,355,0.0,0.0,74,0.00,,,0.00,Wunderground v.1.15,2013-02-19 05:15:00,
2013-02-18 22:20:00,24.9,17.8,30.16,North,355,0.0,0.0,74,0.00,,,0.00,Wunderground v.1.15,2013-02-19 05:20:00,
2013-02-18 22:25:00,24.9,18.1,30.16,North,355,0.0,0.0,75,0.00,,,0.00,Wunderground v.1.15,2013-02-19 05:25:00,
2013-02-18 22:30:00,24.6,17.5,30.16,North,355,0.0,0.0,74,0.00,,,0.00,Wunderground v.1.15,2013-02-19 05:30:00,
2013-02-18 22:35:00,24.2,17.1,30.17,North,355,0.0,0.0,74,0.00,,,0.00,Wunderground v.1.15,2013-02-19 05:35:00,
2013-02-18 22:40:00,23.8,17.0,30.17,North,355,0.0,0.0,75,0.00,,,0.00,Wunderground v.1.15,2013-02-19 05:40:00,
2013-02-18 22:45:00,23.6,17.1,30.17,North,355,0.0,0.0,76,0.00,,,0.00,Wunderground v.1.15,2013-02-19 05:45:00,
2013-02-18 22:50:00,23.7,17.5,30.17,North,355,0.0,0.0,77,0.00,,,0.00,Wunderground v.1.15,2013-02-19 05:50:00,
2013-02-18 22:55:00,23.7,17.8,30.17,North,355,0.0,0.0,78,0.00,,,0.00,Wunderground v.1.15,2013-02-19 05:55:00,
2013-02-18 23:00:00,23.7,17.8,30.17,North,355,0.0,0.0,78,0.00,,,0.00,Wunderground v.1.15,2013-02-19 06:00:00,
2013-02-18 23:05:00,23.8,17.9,30.16,North,355,1.0,2.0,78,0.00,,,0.00,Wunderground v.1.15,2013-02-19 06:05:00,
2013-02-18 23:15:00,24.1,18.2,30.16,North,355,1.0,3.0,78,0.00,,,0.00,Wunderground v.1.15,2013-02-19 06:15:00,
2013-02-18 23:20:00,23.9,17.7,30.16,North,355,2.0,2.0,77,0.00,,,0.00,Wunderground v.1.15,2013-02-19 06:20:00,
2013-02-18 23:25:00,23.8,17.6,30.16,North,355,2.0,2.0,77,0.00,,,0.00,Wunderground v.1.15,2013-02-19 06:25:00,
2013-02-18 23:30:00,23.6,17.1,30.16,North,355,2.0,3.0,76,0.00,,,0.00,Wunderground v.1.15,2013-02-19 06:30:00,
2013-02-18 23:35:00,23.4,16.9,30.16,North,355,2.0,3.0,76,0.00,,,0.00,Wunderground v.1.15,2013-02-19 06:35:00,
2013-02-18 23:40:00,23.4,16.9,30.16,North,355,2.0,2.0,76,0.00,,,0.00,Wunderground v.1.15,2013-02-19 06:40:00,
2013-02-18 23:45:00,23.3,16.5,30.16,North,355,0.0,2.0,75,0.00,,,0.00,Wunderground v.1.15,2013-02-19 06:45:00,
2013-02-18 23:50:00,23.2,16.4,30.16,North,355,0.0,0.0,75,0.00,,,0.00,Wunderground v.1.15,2013-02-19 06:50:00,